Regional Weather Roundup
Issued by NWS

Home | Current Version | Previous Version | Text Only | Print | Product List | Glossary On
Versions: 1 2 3 4 5 6 7 8 9 10 11 12 13 14 15 16 17 18 19 20 21 22 23 24 25 26 27 28 29 30 31 32 33 34 35 36 37 38 39 40 41 42 43 44 45 46 47 48 49 50
000
ASUS43 KTOP 271608
RWRKS

WEATHER ROUNDUP FOR KANSAS
NATIONAL WEATHER SERVICE GOODLAND KS
1000 AM CST MON FEB 27 2017

NOTE:  "FAIR" INDICATES FEW OR NO CLOUDS BELOW 12,000 FEET WITH NO
SIGNIFICANT WEATHER AND/OR OBSTRUCTIONS TO VISIBILITY.

KSZ001>006-013>018-027>032-041>047-271700-
NORTHWEST KANSAS

CITY           SKY/WX    TMP DP  RH WIND       PRES   REMARKS
GOODLAND       CLOUDY    31  25  78 SW5       29.76F
HAYS           CLOUDY    44  32  62 S18       29.86F
HILL CITY      CLOUDY    42  30  62 SE15      29.84F
RUSSELL        SUNNY     46  32  58 S22       29.86F
$$

KSZ061>065-074>080-084>089-271700-
SOUTHWEST KANSAS

CITY           SKY/WX    TMP DP  RH WIND       PRES   REMARKS
DODGE CITY     SUNNY     44  31  60 S12       29.84F
ELKHART          N/A     42  17  36 W8          N/A
GARDEN CITY    SUNNY     38  24  57 SW8       29.80F
GREAT BEND     PTSUNNY   44  34  67 SE16      29.87F
LIBERAL        SUNNY     45  28  53 SW12      29.83F
PRATT          CLOUDY    38  36  89 S12       29.88F FOG     WCI  31
$$

KSZ066>073-081>083-090>101-271700-
SOUTHEAST KANSAS

CITY           SKY/WX    TMP DP  RH WIND       PRES   REMARKS
CHANUTE        SUNNY     49  36  61 SE13      30.02S
COFFEYVILLE    SUNNY     54  40  59 SE7       30.01F
HUTCHINSON     CLOUDY    45  34  65 SE12      29.91F
MEDICINE LODGE   N/A     38  35  89 S8        29.90S
NEWTON         CLOUDY    47  36  65 SE16      29.94F
PARSONS        MOSUNNY   53  38  56 SE7       30.01F
WICHITA INTL   CLOUDY    44  35  70 SE13      29.92F
WICHITA JABRA  CLOUDY    45  36  70 SE10      29.93F
WICHITA MCCONL CLOUDY    45  36  70 SE13      29.93F
WINFIELD       CLOUDY    47  38  71 SE9       29.94F
$$

KSZ007>012-019>026-033>040-048>060-102>105-271700-
NORTHEAST KANSAS

CITY           SKY/WX    TMP DP  RH WIND       PRES   REMARKS
CONCORDIA      SUNNY     46  28  49 SE21G32   29.92F
EMPORIA        SUNNY     44  35  70 SE12      29.98F
LAWRENCE       SUNNY     41  35  79 E8        30.03S
MANHATTAN      SUNNY     48  32  53 SE17G23   29.97F
MARYSVILLE     SUNNY     45  32  61 SE13G18   29.96F
OLATHE IND     SUNNY     45  34  65 SE13      30.04R
OLATHE EXE     SUNNY     43  35  73 SE10      30.03S
SALINA         SUNNY     49  30  48 SE17      29.94S
TOPEKA BILLARD SUNNY     42  35  76 SE14      30.01F HAZE
TOPEKA FORBES  SUNNY     46  33  60 SE10      30.00F
$$



USA.gov is the U.S. government's official web portal to all federal, state and local government web resources and services.